This is the latest recevied weather packets stored in our database for station/object KD6VEX-1. If no packets are shown the sender has not sent any weather packets the latest 10 day(s).
| Time | Temp. | Humidity | Pressure | Rain* | Wind** | Luminosity | Snow |
|---|---|---|---|---|---|---|---|
| 1778085821 | 17.22° C | 66% | 1018.5 hPa | 0 mm | - | - | - |
| 1778085521 | 17.22° C | 67% | 1018.4 hPa | 0 mm | - | - | - |
| 1778085222 | 17.22° C | 68% | 1018.4 hPa | 0 mm | - | - | - |
| 1778084921 | 17.22° C | 68% | 1018.5 hPa | 0 mm | - | - | - |
| 1778084621 | 16.67° C | 69% | 1018.5 hPa | 0 mm | - | - | - |
| 1778084321 | 16.11° C | 71% | 1018.5 hPa | 0 mm | - | - | - |
| 1778084021 | 16.11° C | 71% | 1018.7 hPa | 0 mm | - | - | - |
| 1778083721 | 16.11° C | 72% | 1018.7 hPa | 0 mm | - | - | - |
| 1778083421 | 15.56° C | 72% | 1018.6 hPa | 0 mm | - | - | - |
| 1778083121 | 15.56° C | 73% | 1018.7 hPa | 0 mm | - | - | - |
| 1778082821 | 15° C | 75% | 1018.7 hPa | 0 mm | - | - | - |
| 1778082521 | 15° C | 76% | 1018.7 hPa | 0 mm | - | - | - |
| 1778082221 | 14.44° C | 77% | 1018.6 hPa | 0 mm | - | - | - |
| 1778081621 | 13.33° C | 79% | 1018.6 hPa | 0 mm | - | - | - |
| 1778081321 | 13.33° C | 80% | 1018.5 hPa | 0 mm | - | - | - |
| 1778081021 | 13.33° C | 81% | 1018.6 hPa | 0 mm | - | - | - |
| 1778080721 | 13.33° C | 82% | 1018.7 hPa | 0 mm | - | - | - |
| 1778080421 | 12.78° C | 82% | 1018.8 hPa | 0 mm | - | - | - |
| 1778080121 | 12.78° C | 83% | 1018.8 hPa | 0 mm | - | - | - |
| 1778079821 | 12.78° C | 83% | 1018.7 hPa | 0 mm | - | - | - |
| 1778079521 | 12.78° C | 83% | 1018.7 hPa | 0 mm | - | - | - |
| 1778079221 | 12.22° C | 84% | 1018.6 hPa | 0 mm | - | - | - |
| 1778078921 | 12.22° C | 84% | 1018.6 hPa | 0 mm | - | - | - |
| 1778078621 | 12.22° C | 84% | 1018.6 hPa | 0 mm | - | - | - |
| 1778078321 | 12.22° C | 84% | 1018.6 hPa | 0 mm | - | - | - |
* Rain latest hour (hover to see other rain measurements)
** Current wind speed in m/s (hover to see current wind gust speed)